User: anonymous   Login
Location: Herm
(49.4830°N, 2.4500°W)
Time: 17:40:24
(UTC+01:00)
Language:

Envisat - Orbit

View from above orbital plane
View from above orbital plane
View from above satellite
View from above satellite

Ground track
Ground track

The orbit data is extracted from the following two-line orbital elements,

1 27386U 02009A   19168.50735880 -.00000003  00000-0  12513-4 0  9998
2 27386  98.1490 189.5948 0001281  94.3560  78.2791 14.37950826906028
Epoch (UTC): 17 June 2019 12:10:35
Eccentricity: 0.0001281
inclination: 98.1490°
perigee height: 764 km
apogee height: 766 km
right ascension of ascending node: 189.5948°
argument of perigee: 94.3560°
revolutions per day: 14.37950826
mean anomaly at epoch: 78.2791°
orbit number at epoch: 90602

The dashed part of the orbit path shows where the satellite is in the earth's shadow,  

DLR